User: anonymous   Login
Location: Absher
(46.5583°N, 107.9840°W)
Time: 23:47:31
(UTC+00:00)
Language:

ITAMSAT 1 - Orbit

View from above orbital plane
View from above orbital plane
View from above satellite
View from above satellite

Ground track
Ground track

The orbit data is extracted from the following two-line orbital elements,

1 22826U 93061D   24105.18278646  .00000211  00000-0  97757-4 0  9996
2 22826  98.7903 157.1338 0007945 248.1703 111.8634 14.30833378593995
Epoch (UTC): 14 April 2024 04:23:12
Eccentricity: 0.0007945
inclination: 98.7903°
perigee height: 783 km
apogee height: 794 km
right ascension of ascending node: 157.1338°
argument of perigee: 248.1703°
revolutions per day: 14.30833378
mean anomaly at epoch: 111.8634°
orbit number at epoch: 59399

The dashed part of the orbit path shows where the satellite is in the earth's shadow,  

DLR